ECMWFNIL_prec_cthk_021.txt.gz
RH
26 25 25 25 24 25 24 23 22 21 20 20 19 19 18 17 17 16 16 16 17 16 16 15 14 14 13 13 13 13 13 12 12 13 12 12 12 13 13 13 13 13
27 27 26 27 27 27 26 25 23 22 22 22 21 21 20 19 18 17 18 17 17 17 17 16 15 14 14 14 14 14 13 13 12 12 12 12 12 12 14 13 14 13
28 28 28 28 28 28 28 27 25 24 24 24 23 22 22 20 20 19 18 18 18 18 18 17 16 15 15 15 15 15 14 14 13 13 12 12 12 12 13 14 14 14
30 30 30 30 30 30 31 30 28 26 25 25 24 24 23 22 22 20 19 20 19 19 19 17 16 16 16 15 15 15 14 14 14 13 14 14 14 13 13 14 15 15
30 30 31 32 32 32 33 33 31 28 27 26 26 25 24 24 24 22 20 20 19 20 19 18 16 16 16 16 15 15 15 14 14 14 15 15 16 16 16 16 16 17
35 34 34 34 33 33 34 33 33 32 30 29 29 27 27 26 25 24 22 21 21 20 19 17 17 16 16 16 15 15 14 15 14 15 15 16 17 18 19 19 18 18
41 38 37 36 35 34 35 34 34 34 33 33 32 30 29 28 27 27 24 22 21 21 20 18 17 17 17 16 16 15 15 15 15 16 16 16 16 17 17 19 19 19
44 43 41 39 37 36 35 35 36 37 36 36 35 33 32 31 31 30 27 24 23 22 20 19 18 18 17 17 16 16 16 16 17 18 18 18 18 18 17 18 18 18
45 44 43 42 40 38 37 36 37 39 38 37 37 35 34 33 33 31 28 26 24 22 20 19 19 18 17 16 16 16 16 17 18 19 20 20 22 22 22 22 20 19
47 45 44 43 40 39 37 36 36 37 37 39 40 39 36 36 34 31 29 28 25 22 20 20 19 19 18 18 17 17 17 17 18 19 21 22 23 23 23 23 24 23
51 49 47 44 42 40 38 37 37 35 35 38 41 42 41 38 36 33 31 29 26 22 22 22 21 21 21 20 19 18 17 18 19 21 21 22 22 21 20 20 20 21
56 54 52 49 47 46 45 44 41 37 36 39 40 41 43 41 39 36 33 29 26 24 24 24 24 24 23 21 20 19 19 19 20 21 21 20 19 18 18 16 15 14
57 52 50 50 51 51 51 51 47 42 43 46 45 42 43 43 41 38 34 30 28 26 27 27 27 26 24 23 22 21 21 21 21 21 20 20 19 18 16 14 13 13
54 52 50 51 54 55 56 56 51 47 48 51 51 47 45 44 43 39 36 34 32 30 30 30 29 28 26 25 24 24 24 23 22 22 21 20 19 18 15 13 13 14
53 55 56 56 57 57 59 60 57 53 51 52 52 51 47 44 42 38 36 36 36 35 34 33 32 29 28 27 26 25 25 24 23 22 21 21 19 16 13 13 13 14
58 62 65 64 64 62 60 59 59 56 54 52 52 50 46 42 38 35 35 37 40 41 40 36 33 31 30 27 27 26 25 25 24 23 22 21 18 15 12 12 14 16
54 66 75 76 74 74 71 63 58 58 56 54 53 51 47 41 38 38 38 41 46 47 43 38 34 32 30 28 27 27 26 25 24 23 21 19 16 14 12 14 15 17
38 50 70 83 83 82 80 71 60 57 56 55 54 52 48 45 44 44 44 45 49 50 45 38 35 33 31 29 28 27 26 25 23 20 17 15 14 14 15 16 17 18
33 34 49 73 87 87 83 77 69 62 58 54 51 50 50 50 51 51 49 49 52 51 45 39 37 34 31 30 28 26 25 22 19 17 15 16 16 17 18 19 19 20
35 33 35 52 76 87 86 82 78 71 62 53 51 51 51 52 53 53 52 52 54 52 44 40 37 35 31 29 26 24 21 19 18 18 18 19 20 20 21 21 22 22
35 35 34 40 59 80 88 86 82 75 65 59 57 57 55 55 55 54 53 55 56 52 45 39 36 33 29 26 23 21 20 19 20 20 20 21 21 22 23 23 24 25
36 35 36 38 45 59 71 74 74 71 65 62 62 61 58 58 57 56 55 56 56 49 42 37 34 29 26 23 21 21 20 20 21 21 21 21 22 23 24 24 26 26
36 36 41 45 45 49 55 56 58 61 59 59 63 65 62 59 59 57 55 54 52 45 40 35 31 26 23 22 22 22 23 23 23 22 22 23 23 24 25 25 26 25
35 40 49 54 54 57 60 59 56 58 58 58 63 66 63 60 59 56 52 51 49 44 39 33 28 26 25 25 25 25 24 24 24 24 24 25 25 25 25 25 24 24
38 46 54 60 62 65 68 68 65 65 65 63 62 63 61 61 61 59 56 53 49 43 38 33 30 29 29 28 27 26 26 26 26 27 26 26 25 25 24 24 23 22
39 47 54 62 66 67 67 69 69 70 69 64 59 56 55 58 61 60 58 53 45 40 37 34 32 32 30 28 27 28 28 28 28 27 26 25 25 24 23 22 23 24

ECMWFNIL_prec_cthk_024.txt.gz
RH
26 26 26 26 25 24 24 24 23 22 20 20 20 19 18 18 18 17 17 16 16 16 16 15 15 14 13 13 13 13 12 11 11 11 11 11 11 11 11 12 13 14
27 27 27 28 27 26 26 25 26 24 22 22 21 21 20 19 19 19 18 17 17 17 16 17 16 16 15 14 14 14 13 13 12 12 11 11 11 11 11 11 12 14
28 28 27 28 28 29 29 28 27 27 25 24 23 22 22 21 20 20 19 18 18 18 18 18 18 17 16 15 15 15 15 14 13 13 13 12 12 12 12 13 13 14
32 30 28 27 28 28 30 30 30 29 28 26 25 24 23 23 22 21 21 20 19 19 19 18 19 18 17 16 16 16 15 15 15 15 14 14 13 14 14 14 14 15
41 36 33 30 30 30 31 31 30 30 30 28 28 27 25 25 24 23 22 22 21 20 20 19 19 18 17 16 16 15 16 15 15 15 14 14 14 14 14 14 15 15
49 46 40 35 34 35 34 33 32 32 31 30 31 30 28 27 26 25 24 23 22 22 21 20 20 19 18 16 16 16 16 15 16 15 15 15 14 14 14 14 14 14
52 52 49 44 40 39 39 37 36 34 33 33 33 33 32 30 30 28 26 25 24 23 23 22 21 21 19 18 17 17 17 17 16 16 16 15 15 15 15 14 14 14
53 55 54 50 45 42 41 40 39 38 36 36 36 37 37 35 34 33 31 28 27 26 25 23 23 22 20 19 19 19 19 18 17 17 16 16 16 15 15 15 14 14
59 58 57 54 49 46 43 41 40 39 39 38 38 40 40 39 37 36 34 33 31 30 28 26 25 24 20 19 20 19 19 18 18 17 16 16 16 16 15 15 14 14
66 63 61 59 55 51 47 44 42 42 42 41 41 42 42 41 39 37 36 35 35 34 31 29 27 24 21 20 20 20 20 19 18 17 16 16 16 16 16 16 15 15
62 62 62 61 60 57 52 48 45 44 45 46 46 46 46 44 42 39 37 38 38 37 34 31 28 25 23 23 23 22 22 21 20 19 18 17 17 17 17 17 17 16
60 61 60 59 59 58 56 54 50 48 48 49 49 49 49 48 46 43 42 42 42 41 36 32 29 26 25 25 25 25 24 24 23 22 20 18 18 18 18 17 17 16
59 61 60 57 56 56 56 56 53 50 49 48 49 49 49 49 47 46 47 46 45 44 41 35 30 29 29 30 29 28 27 26 25 24 23 21 20 20 19 18 17 16
54 57 58 57 56 56 54 55 57 58 56 53 51 49 47 47 47 47 49 48 46 44 41 38 36 35 36 36 33 29 27 27 27 27 26 25 23 22 20 19 17 16
51 51 52 54 57 57 54 55 61 69 74 73 69 63 58 52 50 50 51 49 47 42 38 38 41 41 39 38 36 32 29 28 28 28 28 28 26 24 21 19 17 15
46 47 48 52 56 57 56 58 61 67 78 86 85 82 75 66 60 58 54 49 43 36 35 39 41 41 40 39 38 36 33 31 30 31 32 31 30 28 22 17 14 12
37 41 45 49 51 50 51 56 59 61 68 76 81 85 83 78 74 71 66 58 47 37 35 38 41 42 43 43 41 40 37 34 33 34 35 34 31 27 20 14 12 12
29 33 38 43 47 48 47 49 51 52 52 55 61 71 78 79 79 77 73 67 57 47 40 38 40 43 45 44 43 43 40 37 35 35 36 33 28 23 18 14 13 13
24 27 31 35 40 45 46 46 45 46 45 43 43 52 66 75 79 80 76 67 58 51 46 43 44 46 46 46 44 44 42 38 36 35 33 29 26 22 18 16 15 15
18 21 23 27 31 37 42 43 41 41 41 40 38 43 54 65 73 78 77 69 62 59 56 54 53 52 50 48 46 45 43 39 36 33 30 27 26 23 20 18 18 18
17 17 19 22 27 34 39 40 39 40 40 38 39 46 52 57 65 72 77 78 73 65 61 59 56 54 52 49 47 45 41 38 35 33 31 29 26 23 21 20 20 20
20 19 21 24 28 35 40 40 40 42 42 39 43 53 60 63 68 73 79 84 78 65 59 57 53 52 51 48 45 42 39 37 36 35 35 30 26 23 23 22 23 23
21 20 21 25 31 37 40 41 42 43 43 43 45 49 52 57 62 63 66 72 70 61 56 55 51 48 45 42 42 41 40 39 37 37 36 32 27 26 25 25 25 25
22 21 21 26 33 39 39 40 43 43 43 44 44 44 46 51 55 55 56 59 59 55 55 53 48 42 37 37 41 44 45 44 41 39 38 34 30 29 29 28 27 26
23 22 24 29 34 38 37 38 44 52 57 57 57 57 59 61 61 59 59 59 55 54 55 51 43 38 37 39 42 45 46 45 44 43 41 38 36 33 32 31 30 29
25 26 29 33 35 37 36 37 47 63 73 76 77 74 70 68 66 62 61 61 58 56 54 48 43 42 42 42 43 45 47 46 46 45 42 40 38 35 34 34 33 31

ECMWFNIL_prec_cthk_027.txt.gz
RH
25 26 25 25 25 26 26 26 26 25 25 24 22 20 19 18 17 17 17 17 17 16 16 15 15 14 14 13 13 13 13 13 13 13 12 11 11 11 11 11 11 12
29 29 29 28 28 28 28 28 29 29 28 28 27 25 23 21 20 19 19 18 18 18 17 16 16 16 16 15 14 14 14 14 14 13 13 12 12 11 11 11 11 11
37 34 33 32 31 31 31 31 31 31 31 31 31 30 28 26 23 22 22 22 21 20 19 19 18 18 18 17 16 15 15 15 14 14 14 13 13 13 12 12 12 12
43 42 39 37 35 33 32 33 33 32 32 33 34 34 33 32 29 27 25 24 24 23 22 21 21 20 19 19 17 16 16 15 15 15 15 14 14 14 13 13 12 12
44 45 45 44 41 39 37 35 35 35 34 35 35 35 35 36 35 32 30 28 26 26 24 23 22 22 21 20 19 17 16 16 16 16 16 15 15 15 14 14 14 13
45 46 45 45 45 43 42 40 38 38 38 38 38 38 37 37 37 37 36 33 30 28 27 25 24 23 23 23 21 19 18 17 17 17 17 17 16 16 15 15 14 14
50 49 47 45 44 44 45 45 44 42 42 42 42 41 40 40 40 40 39 38 36 33 31 29 27 26 24 24 23 21 19 19 19 19 19 18 18 17 16 16 15 15
55 55 53 51 48 48 49 51 51 48 44 43 43 44 43 42 42 42 41 41 40 38 35 34 33 31 28 26 25 23 21 20 20 20 20 19 19 18 17 16 16 15
62 61 60 59 58 56 56 57 57 54 49 45 44 44 45 44 44 44 44 44 43 42 39 37 36 35 33 31 28 25 22 21 21 21 21 21 20 19 18 17 16 16
71 68 64 63 64 62 60 60 60 58 54 50 48 48 47 47 46 46 46 46 45 44 42 40 39 38 38 36 33 30 26 24 24 23 22 22 21 21 20 19 18 17
76 74 70 66 64 63 62 62 62 62 60 57 56 54 52 50 48 47 48 48 48 48 46 43 41 41 43 41 39 35 31 28 27 25 24 24 23 23 23 21 20 20
76 77 75 71 65 63 61 60 60 61 62 62 63 65 64 61 57 52 50 49 51 51 50 48 45 45 45 45 42 40 37 34 31 30 30 29 28 26 25 23 22 21
72 74 76 75 70 64 60 58 57 57 59 61 66 73 77 76 73 68 60 55 53 51 50 48 47 47 48 46 42 39 38 38 37 36 36 36 34 32 29 25 23 22
62 66 71 73 71 66 62 59 57 55 54 55 59 64 69 72 76 76 73 68 64 61 57 54 50 48 46 45 41 37 37 39 40 40 40 39 38 38 35 29 26 24
50 52 57 61 63 65 63 60 58 55 53 53 54 56 59 64 69 73 74 73 70 68 67 67 64 59 53 46 39 35 34 36 39 40 40 40 40 38 36 33 29 25
43 41 42 45 50 56 59 59 58 57 55 54 55 58 58 58 61 64 65 68 68 66 65 68 71 69 65 59 52 48 45 42 40 39 37 39 39 38 37 34 30 24
37 35 33 34 36 42 47 51 54 56 57 54 56 61 63 62 60 57 53 56 59 57 55 58 61 60 59 60 63 65 63 55 48 43 38 36 38 38 36 33 28 24
25 25 26 26 28 30 33 36 41 47 52 54 55 60 62 62 59 53 48 48 47 44 43 44 47 50 49 52 61 68 66 59 56 51 43 39 38 37 33 29 26 24
16 17 18 19 22 24 26 28 32 37 44 49 53 54 54 53 51 47 45 43 41 41 40 36 37 42 44 48 62 71 66 58 56 52 44 40 38 34 30 28 26 26
16 15 15 16 17 18 19 21 24 28 35 43 47 48 48 48 46 44 43 41 39 38 37 35 37 42 44 47 59 71 70 61 55 50 42 35 35 34 32 30 29 28
18 17 16 16 16 16 16 17 18 21 27 36 42 43 44 43 42 41 39 39 38 38 38 40 43 48 51 53 58 68 71 65 57 48 38 34 36 39 37 32 30 30
20 19 18 17 17 17 17 17 18 20 25 34 40 40 41 42 41 40 38 37 39 42 45 46 49 58 66 71 73 74 73 66 57 48 41 39 42 42 38 33 32 31
24 23 21 20 19 18 18 18 20 24 30 37 40 40 41 42 40 40 42 44 44 45 48 50 52 59 65 67 67 64 58 51 47 44 41 40 40 38 35 32 32 32
26 25 24 24 22 20 18 18 21 27 34 38 39 40 41 41 42 45 49 52 52 51 51 52 53 53 52 49 44 42 39 38 39 40 40 39 38 36 34 32 31 32
27 27 25 25 23 22 20 20 22 29 36 39 39 38 40 42 47 50 52 54 56 55 53 54 55 53 50 47 44 44 43 44 47 47 45 43 40 37 35 34 35 35
27 27 26 26 24 22 22 24 27 31 35 38 38 38 42 47 48 50 53 55 59 61 61 61 60 56 53 51 52 54 54 55 56 53 48 45 42 39 39 40 41 42

ECMWFNIL_prec_cthk_030.txt.gz
RH
28 26 26 25 25 28 28 28 30 29 27 29 30 29 28 25 22 20 19 18 18 17 17 16 15 15 14 14 14 14 14 13 13 14 14 13 12 12 12 12 13 12
35 32 30 29 29 29 28 29 30 31 31 31 32 33 33 29 26 24 23 22 21 21 20 19 18 17 16 16 15 14 14 14 14 14 14 13 13 13 12 12 12 11
40 38 36 33 31 30 30 31 31 32 33 33 33 35 35 32 30 29 27 26 25 24 23 22 21 20 19 18 18 16 15 15 15 15 14 14 14 14 12 12 12 11
43 45 44 41 37 34 33 34 34 34 35 34 35 35 36 34 33 32 31 30 30 28 27 25 23 22 21 20 20 19 18 17 16 16 16 16 15 16 15 14 14 13
47 48 49 48 45 42 40 40 40 38 38 38 38 37 37 37 37 36 35 34 33 32 31 29 27 25 24 23 22 21 21 19 18 17 18 18 18 17 17 17 16 15
52 52 52 51 49 48 48 47 45 43 43 43 42 41 40 39 39 39 39 38 37 36 35 33 31 29 27 25 24 23 23 23 21 19 20 22 20 19 18 18 19 18
54 54 55 55 54 54 55 53 50 47 46 46 47 47 45 43 42 41 41 41 40 40 38 37 36 34 32 30 29 27 26 25 22 20 21 23 21 21 20 19 19 20
57 55 56 58 58 58 58 58 57 54 52 51 50 50 50 48 46 44 43 43 42 42 41 40 39 38 36 35 34 32 30 28 26 23 23 22 21 22 23 21 19 19
68 63 62 61 60 59 58 58 60 61 60 57 54 54 54 52 50 47 46 45 44 44 43 42 41 41 41 39 38 37 36 34 32 29 26 24 22 22 23 23 21 20
78 73 71 71 69 67 64 61 61 62 63 61 57 56 56 55 55 52 51 50 49 49 48 46 45 44 43 42 42 42 43 42 40 36 33 29 27 25 25 24 23 22
79 76 77 79 80 80 76 72 69 68 68 66 63 62 60 58 57 56 56 57 57 56 54 52 51 50 49 47 47 47 46 46 45 42 39 35 32 30 28 27 26 25
79 79 81 80 82 83 82 80 79 77 75 72 68 66 64 61 64 67 67 65 66 66 66 62 57 55 54 53 52 51 50 48 47 47 45 41 37 35 33 31 30 29
71 75 77 78 81 82 79 80 81 81 78 75 71 67 62 59 64 70 70 68 67 69 72 72 68 65 62 60 58 55 54 53 49 46 44 41 38 37 36 37 35 34
64 66 66 69 73 74 74 76 78 81 82 80 76 70 64 60 62 64 63 62 61 61 65 69 70 70 68 68 67 64 61 61 59 54 49 45 41 36 34 34 35 36
57 57 55 55 55 57 61 65 69 74 77 78 77 74 71 69 66 64 62 60 58 57 58 61 63 64 64 64 65 64 62 62 62 59 57 55 52 46 42 38 34 32
41 43 44 43 41 42 45 48 55 62 67 68 69 69 70 70 67 66 66 64 60 58 57 58 58 58 57 57 54 51 50 50 49 48 48 48 49 49 50 51 46 40
32 32 31 31 31 32 34 36 41 51 60 64 65 65 65 65 67 70 71 69 70 71 70 69 69 68 65 59 49 42 40 39 38 37 37 39 41 43 47 54 56 52
27 24 23 23 22 22 24 27 31 40 50 57 63 65 64 62 65 71 72 70 73 74 70 67 69 71 67 56 45 40 38 36 34 33 33 35 40 43 46 52 55 52
23 22 21 21 19 18 17 19 24 31 37 41 50 57 56 55 58 62 63 62 61 58 54 52 52 53 51 46 41 39 37 35 33 32 31 34 39 43 46 49 48 45
21 21 19 18 18 18 18 18 20 23 24 27 38 45 46 46 48 49 50 51 49 47 46 46 45 44 42 40 39 36 34 34 32 31 33 38 42 44 44 44 44 42
23 22 19 18 18 17 17 18 19 21 20 23 31 37 39 40 42 43 44 44 43 41 41 41 40 39 38 36 34 32 32 34 35 38 43 44 43 43 40 39 40 41
27 26 24 22 21 20 18 17 18 21 22 25 31 36 37 37 38 39 39 39 39 38 38 38 36 35 34 33 32 32 35 39 42 46 48 44 41 43 43 42 44 47
29 30 30 28 27 25 24 23 23 24 26 29 35 37 36 36 38 38 38 38 37 37 37 37 36 36 35 35 36 39 44 47 47 45 39 33 33 39 41 41 44 47
32 32 33 32 31 31 31 29 29 29 30 34 38 38 36 37 38 38 38 38 37 38 38 37 36 35 35 38 43 48 51 49 44 36 30 27 30 33 35 35 37 38
35 33 32 31 32 33 33 33 32 32 34 36 37 36 36 38 38 38 38 38 38 38 36 34 35 36 38 43 48 50 50 47 41 36 35 38 41 42 44 45 46 47
38 36 33 31 32 33 34 35 35 34 36 37 36 36 36 37 37 37 37 38 38 36 36 37 41 44 45 46 46 45 45 46 48 49 52 55 57 56 55 54 54 54

ECMWFNIL_prec_cthk_033.txt.gz
RH
46 42 35 30 30 32 32 32 33 34 33 32 33 32 32 32 27 25 27 23 19 18 16 15 15 14 15 14 14 18 15 12 13 13 13 13 12 12 12 11 11 15
48 47 43 37 34 35 35 35 35 37 36 34 35 35 35 36 31 27 29 26 24 23 19 19 18 16 18 17 15 18 17 14 13 13 13 13 14 13 12 12 10 11
49 51 49 46 41 38 38 38 37 38 38 36 37 37 38 39 33 29 29 28 28 27 24 23 23 20 21 19 17 19 19 17 16 15 15 14 14 15 13 13 12 12
50 51 52 52 50 47 47 46 42 40 39 38 39 38 39 39 34 32 32 30 30 30 27 27 26 25 25 22 21 24 21 19 19 16 17 17 15 16 15 15 14 13
55 53 53 54 55 56 57 55 52 48 45 44 44 43 43 41 36 35 34 32 32 31 29 29 29 28 28 25 25 28 24 22 22 19 21 22 18 17 16 16 17 15
63 59 56 57 58 58 60 61 60 56 52 51 50 48 48 47 42 40 39 36 35 34 33 31 30 29 29 27 28 28 27 28 26 22 25 26 22 20 18 17 19 19
71 66 63 62 63 63 63 64 67 65 62 60 57 54 52 52 50 48 47 44 42 41 39 36 34 32 31 30 30 30 30 32 30 26 27 31 27 23 21 20 20 21
77 75 72 70 68 68 68 68 71 72 69 66 65 62 59 58 56 54 53 53 51 49 46 44 41 38 36 34 34 35 34 34 34 31 32 35 32 28 28 26 22 21
76 78 79 78 76 74 72 72 75 75 72 69 66 64 63 62 59 56 56 57 56 54 52 51 49 46 43 39 37 38 37 36 35 35 38 39 38 37 37 36 30 26
75 79 83 84 82 78 75 75 77 76 74 73 69 64 63 63 62 59 57 58 57 55 55 58 58 56 53 49 44 42 42 41 40 40 41 42 42 42 44 42 38 34
75 79 83 86 84 81 77 77 78 79 79 79 77 72 67 65 65 63 60 59 58 55 56 61 62 62 62 61 57 52 49 49 48 46 44 43 44 45 44 42 41 39
76 79 83 85 83 80 79 78 78 81 82 81 79 78 76 73 70 68 65 63 63 61 59 61 61 61 61 63 63 61 58 56 56 54 53 52 51 49 45 42 41 40
74 78 80 84 84 81 81 80 78 79 80 80 80 80 80 79 76 74 72 69 67 65 63 62 62 61 60 58 59 61 62 62 61 59 58 57 55 52 49 46 42 40
61 64 66 72 76 76 78 77 75 75 76 77 78 78 77 77 77 76 75 72 70 68 67 68 67 64 61 58 57 56 57 60 63 62 59 56 53 50 48 46 44 43
52 54 56 60 66 69 71 71 71 72 72 71 70 70 69 69 72 72 71 71 71 71 73 75 72 68 65 62 60 57 55 56 61 64 63 59 55 53 50 47 46 44
47 49 51 52 55 57 59 60 62 64 65 63 62 64 63 62 64 64 66 71 71 70 72 71 70 71 70 67 69 71 66 61 61 64 64 61 55 50 47 44 40 38
47 46 46 44 43 43 43 46 47 50 53 52 50 50 53 56 58 57 62 70 70 67 67 65 66 75 78 76 78 80 74 67 66 65 64 64 59 51 43 39 36 35
45 45 45 43 42 42 42 41 41 43 44 44 41 39 40 45 49 50 54 60 61 62 64 61 62 68 70 70 71 70 67 63 62 59 55 54 52 46 40 37 36 34
45 45 44 44 43 43 43 43 43 41 38 37 37 37 36 37 39 42 46 48 50 52 55 56 55 54 54 55 56 55 54 54 51 48 45 42 39 37 36 33 31 29
49 46 45 45 46 47 45 43 41 38 36 35 35 36 37 36 34 35 37 39 40 41 42 45 49 47 46 47 47 47 47 46 43 41 39 38 36 34 31 27 24 25
52 50 48 49 48 48 46 42 39 37 36 36 36 35 36 37 36 33 32 34 37 37 35 37 41 41 41 41 42 43 42 40 38 37 35 33 31 28 25 23 24 25
43 44 45 45 44 42 39 36 35 35 35 35 35 35 34 35 37 37 35 36 38 36 34 34 37 38 38 39 39 39 38 36 35 34 33 30 27 26 26 28 30 32
33 34 35 35 35 34 32 32 31 32 32 33 34 35 35 37 40 41 40 38 36 35 34 35 36 36 37 37 37 36 36 34 34 34 34 32 31 32 34 37 40 41
32 32 33 33 33 32 32 32 32 32 33 33 34 34 36 36 37 38 38 36 34 35 36 36 36 36 36 36 35 35 34 33 34 35 35 34 35 37 41 45 48 47
35 35 35 36 36 36 35 34 35 35 35 34 34 35 36 35 34 34 36 36 35 36 37 38 37 36 36 35 35 34 34 33 33 32 33 36 38 42 46 48 49 47
41 41 41 42 41 40 40 39 38 38 37 37 38 38 37 36 34 34 36 36 36 37 37 37 36 36 35 35 36 38 38 35 31 30 33 38 42 45 48 49 50 51

ECMWFNIL_prec_cthk_036.txt.gz
RH
44 42 37 36 35 30 26 28 30 29 29 31 31 30 28 23 19 19 18 18 18 17 17 16 15 15 14 14 17 17 13 13 13 13 13 12 12 12 12 10 11 17
46 45 41 39 40 38 32 31 34 33 31 32 33 34 32 28 25 24 23 22 22 21 20 20 18 18 17 16 16 15 14 14 14 13 13 12 13 12 12 11 10 14
50 51 48 45 45 45 41 37 37 36 33 33 34 36 35 31 28 26 26 25 25 24 24 23 22 21 20 19 18 17 16 16 15 15 15 14 14 14 14 14 13 12
53 56 56 54 52 52 49 45 42 39 38 36 36 38 38 34 30 29 28 28 27 26 26 25 25 24 23 22 22 21 20 19 17 17 17 16 16 15 15 15 15 14
56 59 61 61 59 57 55 52 49 46 45 43 42 44 44 41 38 35 33 31 30 29 28 27 26 25 26 25 25 25 23 22 21 19 19 19 18 17 16 16 16 16
60 63 64 66 66 65 61 59 57 55 53 52 51 52 51 50 47 45 42 39 37 34 32 31 31 30 30 29 28 28 26 26 25 24 24 24 22 21 20 18 17 17
65 66 68 70 71 71 68 65 64 61 59 57 56 55 55 54 54 55 55 51 46 43 40 38 36 35 35 34 34 32 30 30 30 29 30 31 30 28 26 25 23 22
70 69 72 75 75 75 73 69 68 67 65 64 64 63 61 59 58 59 61 59 56 54 52 49 47 44 43 41 40 38 36 35 34 33 33 35 37 35 34 34 32 30
75 72 74 78 79 77 78 76 73 72 71 69 69 69 66 63 60 59 60 60 59 59 58 57 56 55 54 52 49 46 43 40 38 37 35 36 39 39 39 40 39 37
78 75 74 79 80 78 79 81 81 80 76 72 72 73 71 68 66 63 61 59 60 61 61 60 59 58 59 60 60 57 54 51 47 44 40 39 40 41 41 43 43 41
78 75 74 77 79 79 80 82 84 83 79 75 76 79 78 74 70 67 66 64 63 66 68 66 62 59 59 59 60 60 60 60 58 56 53 50 49 48 47 47 49 47
72 72 73 74 76 76 77 79 80 80 80 80 81 81 80 76 72 69 70 70 71 73 74 71 67 65 62 60 58 56 56 57 59 59 58 56 56 56 54 53 52 50
62 65 68 69 70 71 71 74 78 80 82 84 85 85 82 77 73 69 70 76 81 82 81 77 74 72 71 67 63 59 56 56 57 57 57 55 54 55 56 55 52 49
53 54 56 57 60 62 63 66 70 74 76 77 81 87 85 77 71 68 70 75 77 77 78 79 76 74 76 77 74 69 64 62 62 62 63 61 59 57 58 57 56 54
48 48 48 48 49 51 54 55 56 59 63 66 71 76 77 72 68 70 73 72 67 66 69 73 75 75 77 78 77 76 72 68 68 69 67 66 66 63 60 59 60 60
43 45 46 46 46 47 49 49 48 50 54 57 58 61 62 61 61 65 69 68 67 67 66 67 68 69 70 70 70 70 70 67 68 70 70 68 68 66 65 63 60 57
45 45 45 46 47 47 47 47 47 47 48 49 49 49 48 46 46 50 52 53 56 61 61 60 59 60 61 64 63 62 62 62 63 64 64 62 62 63 65 63 60 55
44 45 45 46 46 46 46 46 46 45 46 46 46 46 44 42 41 41 42 43 44 46 47 46 47 49 51 53 54 53 54 56 56 55 54 54 55 57 58 56 54 52
43 43 43 44 44 45 45 45 44 43 43 43 43 43 43 43 43 42 41 40 38 36 37 36 35 36 39 42 46 46 46 48 48 46 46 47 48 50 50 49 48 46
42 42 42 42 42 42 44 45 45 44 43 43 43 43 43 43 45 46 45 41 36 33 35 33 31 31 32 35 40 42 42 42 42 41 41 41 42 43 43 42 42 40
38 38 38 38 38 36 37 40 45 48 48 48 47 46 44 43 43 45 46 44 40 37 36 35 35 34 34 35 38 40 40 39 39 39 39 39 39 39 38 38 36 33
34 34 34 34 34 34 34 37 43 48 51 52 53 51 47 44 42 42 44 45 43 41 40 40 41 41 39 37 38 40 40 38 37 37 36 36 37 37 36 36 33 30
36 35 35 34 34 35 34 36 39 42 43 46 49 50 49 47 45 45 45 45 43 42 41 41 41 41 39 38 38 38 37 36 36 36 36 36 36 37 36 33 30 28
35 35 36 36 36 36 36 35 35 35 36 38 39 42 43 43 42 41 40 40 39 39 38 39 40 38 37 37 37 37 37 40 41 42 42 41 38 36 33 29 28 29
36 35 35 36 37 38 38 38 37 36 35 35 36 36 37 37 37 36 35 35 35 35 35 36 37 38 37 37 37 36 38 42 43 41 41 40 36 33 31 30 30 30
40 38 37 36 37 38 39 40 41 42 41 40 39 38 37 37 37 36 36 36 35 35 35 36 38 38 38 37 38 38 38 39 38 36 36 36 34 32 32 31 32 31

ECMWFNIL_prec_cthk_042.txt.gz
RH
63 62 57 54 49 46 43 40 39 38 35 33 31 26 22 20 20 21 22 22 22 21 20 19 18 17 17 16 15 14 13 12 12 12 11 11 10 10 10 11 11 11
65 64 60 56 56 55 50 44 41 41 39 37 36 32 27 25 24 23 24 24 25 26 25 24 23 21 20 20 18 18 17 15 14 13 13 12 12 11 10 10 10 10
62 62 59 56 59 63 60 52 47 45 44 42 41 39 34 30 28 27 26 26 26 28 28 28 28 26 25 24 23 22 20 19 18 16 15 15 14 14 13 12 11 11
61 62 61 61 66 70 68 62 57 53 50 48 46 45 41 37 34 32 31 30 30 30 30 30 30 29 29 28 27 26 25 23 22 20 19 18 17 17 16 15 14 14
63 65 65 68 75 77 73 70 67 62 58 55 53 51 47 44 42 40 38 36 35 35 36 35 33 33 33 32 31 31 29 28 26 25 23 22 20 19 18 18 17 16
63 63 63 70 79 79 74 71 71 69 65 63 61 58 56 53 52 51 49 46 43 42 41 41 39 38 37 36 36 35 34 33 31 29 28 27 26 25 24 22 21 19
62 62 61 69 80 78 72 70 72 72 69 68 67 66 65 63 61 59 59 58 55 53 50 49 48 47 45 43 40 39 39 38 37 35 34 34 34 33 33 32 30 28
60 61 62 69 76 74 71 73 75 74 71 69 71 73 73 72 69 66 65 66 66 64 62 61 60 59 57 54 49 46 44 43 43 41 40 38 38 38 38 39 39 38
58 62 68 73 75 73 74 77 77 76 76 77 78 78 79 80 78 74 72 73 74 73 72 71 69 66 64 62 59 57 55 53 52 51 47 44 42 40 40 40 41 41
59 63 68 74 77 78 80 83 83 83 84 85 84 81 81 83 83 80 79 78 78 78 78 78 76 73 69 68 66 65 63 61 61 60 58 56 52 49 47 45 43 43
62 62 63 66 69 71 73 73 75 80 83 86 88 84 81 82 81 80 81 82 80 78 77 80 81 78 76 74 72 69 66 63 64 65 66 66 65 62 60 57 54 52
62 59 58 59 60 63 64 61 62 68 73 79 87 85 79 76 76 75 77 82 83 80 77 78 82 82 79 78 78 77 74 70 67 67 69 70 69 69 68 67 65 63
61 60 59 60 61 62 63 61 61 63 64 69 76 77 74 73 72 70 72 77 81 81 80 79 82 84 81 80 80 80 78 75 72 71 72 71 68 67 67 67 66 64
63 63 63 63 64 64 64 65 65 63 63 65 66 65 67 68 67 67 69 72 74 75 75 77 80 84 83 79 78 77 76 78 78 76 76 75 73 70 67 66 66 66
55 55 55 54 56 58 60 63 63 62 61 60 58 57 58 60 63 67 70 71 70 67 67 68 71 76 78 75 71 68 67 71 77 76 73 72 72 73 71 69 69 69
49 50 48 47 48 50 52 54 55 56 55 54 53 53 54 55 57 59 62 65 66 65 63 64 65 69 71 69 66 63 60 62 67 69 66 62 60 64 67 68 69 69
48 49 47 47 49 50 51 52 53 53 53 53 54 54 54 55 56 56 56 56 57 57 57 59 62 63 63 61 60 59 57 56 57 58 58 55 52 53 57 60 63 64
42 44 45 46 49 50 50 51 51 51 50 49 50 51 50 51 53 54 55 55 54 52 50 49 51 52 54 55 56 55 54 53 53 54 54 53 52 52 54 56 57 59
39 40 41 41 43 46 47 48 48 47 45 45 45 46 46 46 47 48 50 52 53 53 51 47 45 45 46 47 48 49 50 51 52 53 52 52 52 54 57 57 55 55
41 41 40 40 40 40 42 43 43 41 39 39 39 40 40 42 44 45 47 48 49 51 52 50 47 44 44 43 43 44 46 48 50 51 51 50 51 54 56 56 52 50
44 42 41 40 39 37 37 37 36 34 32 32 32 33 34 34 35 37 39 40 42 43 46 47 46 43 43 44 45 45 46 46 47 50 53 54 56 56 56 55 52 51
46 45 45 44 42 41 39 36 34 31 29 29 29 29 29 29 28 28 29 31 35 38 39 41 42 41 42 43 46 47 48 48 50 54 57 60 62 60 58 56 54 54
50 49 49 48 46 45 43 40 38 35 33 33 32 31 29 27 24 23 23 25 29 34 37 39 40 40 41 42 43 46 48 50 54 56 57 58 58 56 53 52 51 51
51 50 50 50 50 49 47 44 42 40 39 38 38 36 34 30 26 24 24 24 26 31 34 36 38 39 40 40 41 42 43 44 47 49 50 50 48 45 44 44 45 45
46 47 48 49 50 50 47 45 43 42 42 41 39 37 35 33 30 28 28 27 29 33 34 35 36 36 37 38 38 39 40 42 43 44 44 43 43 42 41 40 40 39
46 46 46 47 48 48 47 46 45 44 43 41 39 37 36 35 34 34 34 34 35 36 36 37 37 38 38 37 38 38 39 40 41 42 41 40 41 41 42 41 40 39

ECMWFNIL_prec_cthk_045.txt.gz
RH
56 53 55 56 57 54 51 49 47 47 45 41 37 31 26 23 20 19 18 17 18 17 17 17 16 16 16 15 14 14 13 12 11 11 11 10 10 10 10 10 11 11
58 56 57 57 57 55 52 51 50 51 51 47 42 37 31 26 24 22 21 20 21 21 20 20 20 19 19 19 18 18 17 16 15 13 13 11 11 10 10 10 9 9
60 64 64 61 58 56 55 55 54 53 55 51 45 40 35 31 29 27 26 25 25 24 24 24 24 24 24 23 22 22 21 20 19 17 17 15 14 13 12 11 11 11
62 68 70 66 59 56 57 60 61 59 57 53 46 41 38 35 33 31 30 30 29 29 29 28 27 27 28 27 27 26 25 24 22 21 20 19 18 17 16 15 14 13
62 69 71 67 61 55 54 60 67 65 61 58 51 44 42 40 38 37 35 34 34 34 35 34 34 33 32 32 31 30 30 29 27 25 24 22 21 20 19 18 17 16
63 71 71 66 62 57 53 60 70 69 64 61 56 52 50 48 47 47 46 45 44 43 43 42 42 41 39 38 36 35 35 34 32 30 28 27 26 25 23 22 21 20
62 67 65 62 63 60 57 62 71 72 67 62 61 61 60 58 58 57 57 59 57 55 54 52 50 49 48 46 44 41 40 39 39 37 35 33 32 31 31 30 29 28
63 67 65 61 60 60 60 64 73 77 74 71 70 70 70 70 68 65 67 69 70 68 67 65 64 63 61 60 57 53 49 47 46 45 43 41 37 36 36 36 36 35
62 68 69 64 59 59 62 67 75 77 75 76 77 78 79 78 75 74 75 76 77 78 78 76 75 75 74 73 71 66 62 58 56 55 53 50 47 43 40 39 39 39
58 62 64 62 59 59 61 65 72 76 76 78 80 79 80 81 81 82 82 82 83 84 84 82 81 81 80 79 78 76 72 69 65 64 62 60 57 53 50 48 46 46
60 62 60 59 58 58 60 62 66 72 75 76 75 72 73 78 83 85 84 84 85 85 86 85 85 85 83 81 79 78 78 76 73 71 69 67 66 63 61 60 59 58
65 67 63 61 58 55 58 61 62 65 68 69 65 61 63 71 77 81 83 82 81 81 84 84 82 84 85 82 80 81 81 81 80 78 75 73 71 71 70 69 69 68
68 69 67 66 62 59 60 61 61 62 64 63 60 56 59 67 73 75 76 77 77 78 83 82 79 81 85 82 81 84 86 86 84 82 79 77 75 74 73 73 72 71
63 67 72 73 69 67 68 68 66 63 61 62 62 59 60 66 71 72 72 73 73 73 77 79 76 77 80 80 78 80 82 83 84 82 80 79 78 75 73 72 73 71
59 65 76 77 69 68 73 75 73 69 66 67 67 63 60 61 64 67 68 67 66 69 75 76 73 73 74 75 75 76 76 78 80 79 76 76 76 74 72 72 74 73
54 60 68 68 61 59 62 63 63 62 60 59 58 55 53 54 58 63 67 66 65 68 69 67 66 67 68 69 72 74 75 76 75 74 72 70 71 73 72 71 71 71
45 50 54 54 51 50 49 48 47 48 47 46 45 44 44 47 52 57 62 63 61 59 55 53 53 55 56 59 64 68 72 73 72 71 70 68 66 67 69 67 64 60
41 43 45 45 46 46 45 44 42 42 42 41 40 40 41 42 44 46 48 49 50 49 49 49 49 48 46 48 51 55 61 67 71 72 73 71 68 68 68 65 61 58
44 45 45 45 46 46 45 44 42 42 41 40 40 40 41 42 43 45 45 45 44 43 44 45 47 47 46 44 44 46 48 53 59 65 67 67 67 68 67 64 62 61
48 49 49 49 49 47 45 44 43 43 42 41 40 40 41 42 43 44 44 43 41 39 39 40 43 46 46 45 44 44 44 45 48 51 53 54 55 57 58 59 58 57
51 51 51 51 50 48 47 45 44 43 43 43 42 41 40 40 40 40 40 37 36 35 35 36 39 41 43 43 43 42 42 42 42 43 45 46 48 51 53 55 54 53
55 56 54 53 51 50 49 47 45 44 44 43 43 41 40 39 38 38 37 35 34 32 31 33 36 38 39 39 39 39 39 38 38 39 40 42 44 47 50 52 52 53
61 60 58 55 54 53 52 50 47 46 46 46 45 43 41 41 41 40 38 37 36 32 29 29 32 34 35 35 35 35 35 35 35 34 35 35 37 40 44 47 50 53
65 63 60 57 55 54 53 51 51 51 51 51 50 48 47 46 46 44 41 39 35 30 28 30 33 34 34 33 33 33 33 33 33 32 32 32 33 36 40 43 46 49
65 64 63 60 59 58 56 56 55 53 52 52 50 47 46 46 46 45 43 39 34 29 28 30 34 37 36 35 35 35 36 36 35 34 34 34 33 34 36 38 39 41
65 66 68 67 64 60 57 55 53 50 47 48 48 48 48 47 47 46 45 43 39 35 32 34 37 39 38 38 37 39 40 41 40 39 38 37 37 35 35 35 35 36

ECMWFNIL_prec_cthk_048.txt.gz
RH
61 63 63 61 55 49 49 50 52 52 49 43 39 37 36 35 32 27 22 20 20 20 19 19 18 17 17 16 15 15 14 14 13 12 12 11 11 11 11 11 11 10
65 64 64 62 57 51 51 54 54 53 51 46 42 39 38 38 38 33 27 23 23 23 23 23 23 22 22 21 20 19 17 17 16 15 14 13 12 12 11 10 10 10
67 66 64 61 57 55 56 57 56 54 52 49 46 45 43 42 41 36 31 28 27 27 27 27 27 27 27 26 25 24 22 20 20 19 18 17 16 15 15 14 13 12
59 59 59 57 54 55 57 57 56 54 52 52 52 52 50 47 44 39 35 34 33 33 32 31 31 31 30 30 29 29 28 26 25 23 22 21 20 19 18 18 17 16
52 51 51 50 51 54 55 54 54 52 52 52 53 56 56 51 45 42 41 40 40 39 39 38 37 36 35 35 33 32 31 31 30 29 27 26 25 24 23 22 21 20
49 47 46 50 58 60 54 48 50 50 51 53 56 60 62 56 49 48 50 50 50 48 48 47 46 45 45 44 43 41 39 36 35 34 33 32 31 29 29 27 26 24
51 48 47 53 62 62 50 41 43 46 49 55 60 66 67 62 59 60 62 64 65 63 63 62 60 57 56 56 56 55 54 50 46 42 39 38 37 35 35 34 33 32
52 49 47 52 61 65 60 50 44 45 50 59 65 70 72 69 68 71 73 74 75 74 74 73 72 69 68 68 67 66 65 64 62 58 53 48 44 42 40 39 39 38
51 49 48 51 58 67 69 60 50 48 56 69 73 72 73 72 71 75 78 79 79 79 77 77 77 77 77 77 76 74 73 71 71 70 66 62 57 52 48 45 44 43
51 51 50 52 58 65 68 64 57 53 58 70 74 74 76 77 76 77 76 75 78 82 84 83 83 82 82 82 81 81 79 76 74 72 72 70 67 63 60 57 53 50
52 53 52 54 61 67 67 65 64 60 60 67 73 76 78 78 78 78 74 72 76 83 87 87 86 85 85 85 84 83 82 80 79 77 74 74 73 71 68 66 63 60
47 49 51 54 59 63 62 61 61 60 61 66 70 73 72 68 70 72 70 69 73 80 85 85 84 82 82 83 84 83 82 80 80 81 78 76 78 78 76 73 71 68
45 48 52 55 57 60 62 62 61 58 59 63 65 67 67 65 66 65 64 65 69 75 79 81 80 78 78 79 78 80 81 77 78 82 83 81 81 81 81 81 78 75
45 51 54 54 57 61 64 64 65 64 63 61 61 63 66 67 66 63 62 65 67 69 71 73 75 75 74 73 73 77 79 77 77 82 84 83 83 83 83 83 82 82
45 51 55 54 57 63 66 66 69 72 69 64 61 62 65 68 67 65 65 65 64 63 63 65 68 69 69 69 72 74 76 76 78 79 80 79 80 81 80 81 82 83
47 50 55 56 56 60 64 65 65 66 66 65 65 64 64 65 66 65 63 60 58 57 56 58 60 62 65 67 69 69 71 75 77 76 76 77 79 80 80 79 80 79
49 51 55 56 54 54 57 60 61 60 62 64 65 63 61 60 59 57 53 51 50 50 52 53 53 54 57 60 59 57 59 64 66 66 67 70 72 75 76 77 77 76
50 51 53 52 50 49 51 53 55 56 57 57 57 56 54 51 49 47 45 45 45 46 48 49 49 49 50 50 48 45 45 46 47 49 53 57 61 65 68 70 71 72
48 49 51 50 49 48 48 47 47 50 52 52 51 51 48 45 44 43 43 42 42 42 43 44 45 48 49 48 45 42 39 38 37 38 40 43 49 54 58 62 64 65
48 50 52 52 51 49 47 45 45 47 49 51 51 50 49 47 45 43 42 42 42 43 42 42 43 45 46 46 44 41 38 37 36 35 35 36 38 42 46 49 52 55
52 53 53 54 54 53 49 46 45 44 45 45 46 47 47 46 45 44 43 42 41 40 39 38 37 38 39 41 40 39 38 37 36 35 33 33 34 35 36 38 40 43
56 56 54 54 55 54 51 49 48 48 48 48 48 48 48 47 46 44 43 41 40 39 37 35 32 31 33 35 36 37 36 36 35 34 32 31 32 32 33 34 36 37
64 63 61 61 61 60 59 59 60 60 59 57 56 55 55 53 51 50 48 46 44 41 39 36 32 30 30 32 34 35 36 35 35 34 33 32 31 31 30 31 32 33
70 70 69 69 68 67 67 67 68 68 66 64 61 59 58 56 54 53 52 49 47 47 44 40 36 32 31 32 34 36 36 37 36 36 35 34 32 32 30 30 31 32
72 72 72 71 69 69 70 69 69 70 69 67 63 59 57 56 56 55 55 54 54 52 48 43 38 36 35 37 39 39 40 39 39 38 38 36 36 36 35 34 34 33
76 76 76 75 73 73 72 71 68 66 64 63 61 58 57 58 59 59 58 57 54 50 45 41 38 38 41 44 45 44 44 43 43 42 41 39 39 39 38 38 38 36